Waarnemingen

Advertentie
Mijn weer
Arkona, Duitsland (10091): temperatuur & dauwpunt: 14.08.2017 00:00:00 - 20.08.2017 00:00:00 (CEST)Arkona, Duitsland (10091): temperatuur 5cm & temperatuur -5cm: 14.08.2017 00:00:00 - 20.08.2017 00:00:00 (CEST)Arkona, Duitsland (10091): temperatuur -20cm & temperatuur -100cm: 14.08.2017 00:00:00 - 20.08.2017 00:00:00 (CEST)Arkona, Duitsland (10091): water temperatuur: 14.08.2017 00:00:00 - 20.08.2017 00:00:00 (CEST)Arkona, Duitsland (10091): windsnelheid & windstoten: 14.08.2017 00:00:00 - 20.08.2017 00:00:00 (CEST)Arkona, Duitsland (10091): windrichting: 14.08.2017 00:00:00 - 20.08.2017 00:00:00 (CEST)Arkona, Duitsland (10091): luchtdruk: 14.08.2017 00:00:00 - 20.08.2017 00:00:00 (CEST)Arkona, Duitsland (10091): zicht: 14.08.2017 00:00:00 - 20.08.2017 00:00:00 (CEST)Arkona, Duitsland (10091): Zonneschijnduur: 14.08.2017 00:00:00 - 20.08.2017 00:00:00 (CEST)Arkona, Duitsland (10091): neerslag: 14.08.2017 00:00:00 - 20.08.2017 00:00:00 (CEST)
Datum & Tijd tt [°C] td [°C] tt 5cm [°C] tt -5cm [°C] tt -20cm [°C] tt -100cm [°C] tw [°C] ff [km/u] ff [kn] fx [km/u] fx [kn] dd ppp [hPa] vv [km] sd [min] rr [mm]
20.08.2017 00:00:00 13,3 12,8 12,9 15,7 18,7 17,4 18,0 16 9 59 32 ZW 1015,6 29 0 2,6
19.08.2017 23:00:00 15,0 13,2 14,3 15,7 19,1 17,4 18,0 19 11 25 13 ZZW 1015,7 30 0 0,0
19.08.2017 22:00:00 13,9 12,1 12,1 16,3 19,4 17,4 18,0 16 9 27 15 ZW 1015,5 34 0 0,0
19.08.2017 21:00:00 15,1 12,0 13,8 17,2 19,8 17,4 18,0 22 12 32 17 WZW 1015,1 18 11 0,0
19.08.2017 20:00:00 15,9 12,9 15,3 18,5 20,0 17,4 18,1 20 11 39 21 WZW 1014,6 37 58 0,0
19.08.2017 19:00:00 16,4 12,8 16,8 19,7 20,2 17,4 18,1 28 15 42 23 WZW 1014,2 42 22 0,0
19.08.2017 18:00:00 16,0 13,5 16,2 20,6 20,3 17,4 18,1 24 13 59 32 WZW 1014,4 36 20 2,2
19.08.2017 17:00:00 18,3 10,4 18,4 22,0 20,2 17,4 18,1 27 14 42 23 WZW 1013,8 66 7 0,0
19.08.2017 16:00:00 18,4 11,3 19,5 23,6 19,9 17,4 18,1 25 14 41 22 WZW 1013,5 55 53 0,0
19.08.2017 15:00:00 17,5 11,3 18,7 22,3 19,6 17,4 18,1 32 18 48 26 W 1013,6 46 37 0,0
19.08.2017 14:00:00 18,5 11,8 20,7 23,0 19,2 17,4 18,1 36 19 52 28 WZW 1013,2 30 54 0,0
19.08.2017 13:00:00 18,2 11,7 20,3 22,7 18,7 17,4 18,0 38 21 53 28 WZW 1012,8 20 55 0,0
19.08.2017 12:00:00 17,1 12,6 18,6 20,9 18,4 17,4 18,1 37 20 49 26 WZW 1012,4 25 56 0,0
19.08.2017 11:00:00 16,7 11,9 17,6 19,3 18,3 17,4 18,1 37 20 49 26 WZW 1012,2 27 54 0,0
19.08.2017 10:00:00 16,0 12,3 16,2 18,0 18,2 17,4 18,1 34 18 48 26 WZW 1011,6 54 26 0,0
19.08.2017 09:00:00 16,1 13,3 16,1 17,5 18,3 17,4 18,1 35 19 47 26 W 1010,7 22 24 0,0
19.08.2017 08:00:00 16,1 15,1 16,0 16,7 18,4 17,4 18,1 28 15 43 23 ZW 1009,9 7 2 0,0
19.08.2017 07:00:00 16,2 14,6 15,5 16,1 18,6 17,4 18,2 29 16 45 25 WZW 1009,6 18 0 0,0
19.08.2017 06:00:00 16,1 14,9 15,2 16,4 18,8 17,4 18,2 32 18 49 26 W 1008,9 14 0 0,0
19.08.2017 05:00:00 16,6 15,8 16,0 16,8 19,0 17,4 18,2 33 18 44 24 W 1008,0 7 0 0,0
19.08.2017 04:00:00 16,5 15,4 15,6 17,1 19,2 17,4 18,3 27 15 39 21 WZW 1008,0 25 0 0,0
19.08.2017 03:00:00 16,4 15,6 15,9 17,2 19,4 17,4 18,2 20 11 36 19 WZW 1007,9 21 0 0,0
19.08.2017 02:00:00 16,2 14,1 15,5 17,6 19,6 17,4 18,3 29 15 43 23 W 1007,9 53 0 0,7
19.08.2017 01:00:00 17,1 16,3 16,5 18,2 19,9 17,4 18,3 31 17 41 22 W 1008,3 3,9 0 0,4
19.08.2017 00:00:00 17,1 16,5 16,6 18,5 20,1 17,4 18,3 19 11 23 13 W 1008,7 5 0 0,0
18.08.2017 23:00:00 16,8 16,6 16,5 18,8 20,3 17,4 18,3 16 9 18 10 W 1008,6 6 0 0,0
18.08.2017 22:00:00 17,4 17,0 16,7 19,2 20,5 17,4 18,3 7 4 9 5 NO 1008,8 4,9 0 0,0
18.08.2017 21:00:00 18,0 16,9 17,3 19,9 20,7 17,4 18,3 6 4 24 13 WNW 1009,5 7 0 0,0
18.08.2017 20:00:00 18,5 17,5 18,0 20,6 20,9 17,4 18,3 13 7 19 10 W 1009,7 15 0 0,2
18.08.2017 19:00:00 19,2 18,6 19,2 21,3 21,0 17,4 18,3 9 5 14 7 Z 1010,2 9 0 0,0
18.08.2017 18:00:00 19,6 18,2 19,6 21,8 21,0 17,4 18,3 11 6 20 11 ZZW 1010,8 14 0 0,1
18.08.2017 17:00:00 20,2 17,8 19,7 22,4 21,0 17,4 18,3 9 5 21 11 ZZW 1011,1 22 0 0,0
18.08.2017 16:00:00 20,9 17,7 20,0 23,1 20,9 17,4 18,3 16 9 33 18 ZZW 1011,8 15 0 0,1
18.08.2017 15:00:00 22,1 17,0 23,1 24,2 20,6 17,4 18,4 19 10 25 13 ZW 1012,1 32 1 0,0
18.08.2017 14:00:00 22,3 17,7 24,5 24,8 20,2 17,3 18,3 18 10 30 16 ZZW 1012,3 18 28 0,0
18.08.2017 13:00:00 21,4 17,4 23,3 24,1 19,7 17,3 18,2 24 13 32 17 ZW 1012,4 17 47 0,0
18.08.2017 12:00:00 20,9 17,7 22,5 22,6 19,4 17,3 18,2 24 13 32 17 ZZW 1013,2 15 20 0,0
18.08.2017 11:00:00 19,4 17,5 20,4 21,4 19,2 17,3 18,1 21 12 29 16 ZW 1013,5 7 15 0,0
18.08.2017 10:00:00 18,9 17,5 19,5 20,2 19,0 17,3 18,1 16 9 26 14 ZW 1013,3 5 4 0,0
18.08.2017 09:00:00 18,6 17,7 19,2 19,0 18,9 17,3 18,1 19 10 30 16 ZW 1013,1 6 7 0,0
18.08.2017 08:00:00 17,7 17,5 17,7 18,0 19,0 17,3 18,0 19 10 29 16 ZW 1013,5 2,9 6 0,0
18.08.2017 07:00:00 17,0 16,9 16,9 17,3 19,2 17,3 18,0 19 11 25 13 ZW 1013,3 2,7 6 0,0
18.08.2017 06:00:00 16,4 16,4 16,0 17,2 19,4 17,3 18,0 17 9 25 14 WZW 1013,0 1,8 0 0,0
18.08.2017 05:00:00 16,8 16,7 16,4 17,5 19,6 17,3 18,0 16 8 27 15 WZW 1012,9 3,0 0 0,0
18.08.2017 04:00:00 17,2 16,8 16,7 18,1 19,8 17,3 18,0 22 12 34 18 W 1012,9 3,8 0 0,0
18.08.2017 03:00:00 17,3 17,2 17,2 18,3 20,0 17,3 17,9 18 10 26 14 WZW 1013,1 6 0 0,0
18.08.2017 02:00:00 16,7 16,7 16,6 18,4 20,2 17,3 18,0 11 6 14 8 ZZW 1013,2 4,7 0 2,2
18.08.2017 01:00:00 16,2 16,2 16,3 18,6 20,6 17,3 18,0 6 4 16 9 WNW 1013,5 2,2 0 9,6
18.08.2017 00:00:00 16,4 16,0 16,3 19,2 20,9 17,3 18,1 8 5 12 7 W 1013,7 2,8 0 2,1
17.08.2017 23:00:00 16,5 16,2 16,5 19,5 21,2 17,3 18,1 11 6 35 19 WZW 1014,2 3,0 0 4,4
17.08.2017 22:00:00 17,9 15,4 16,6 20,6 21,5 17,3 18,1 31 17 44 24 ZZW 1014,4 4,6 0 0,2
17.08.2017 21:00:00 20,5 16,5 20,1 21,5 21,7 17,3 18,1 16 9 37 20 Z 1014,2 19 0 0,0
17.08.2017 20:00:00 20,5 16,5 20,2 22,2 21,9 17,3 18,1 23 12 37 20 ZZO 1014,2 20 0 0,0
17.08.2017 19:00:00 19,1 17,8 19,1 23,4 22,0 17,3 18,1 27 15 44 24 OZO 1014,6 10 18 0,0
17.08.2017 18:00:00 19,5 17,9 20,9 24,7 22,0 17,3 18,1 39 21 45 25 OZO 1015,1 12 29 0,0
17.08.2017 17:00:00 19,1 17,6 20,0 25,2 21,8 17,3 18,2 32 17 41 22 OZO 1016,0 8 0 0,0
17.08.2017 16:00:00 19,9 18,1 22,3 26,9 21,5 17,3 18,2 19 10 34 19 OZO 1016,7 5 0 0,0
17.08.2017 15:00:00 20,0 18,0 22,4 28,0 20,9 17,3 18,2 14 8 33 18 O 1017,5 4,6 33 0,0
17.08.2017 14:00:00 20,1 17,8 22,9 28,5 20,1 17,3 - 16 9 34 19 O 1018,1 4,7 60 0,0
17.08.2017 13:00:00 20,9 18,1 24,8 27,6 19,4 17,3 - 21 11 34 19 OZO 1018,6 3,6 60 0,0
17.08.2017 12:00:00 20,1 16,9 22,8 24,8 18,7 17,3 - 18 10 29 15 ZO 1019,2 5 60 0,0
17.08.2017 11:00:00 19,3 15,6 21,1 22,2 18,3 17,3 - 21 11 27 14 ZZO 1019,9 13 46 0,0
17.08.2017 10:00:00 19,4 16,4 21,2 20,2 18,0 17,3 - 21 11 24 13 OZO 1020,2 27 60 0,0
17.08.2017 09:00:00 18,2 15,2 18,4 18,3 17,8 17,3 - 14 8 19 10 OZO 1020,6 28 60 0,0
17.08.2017 08:00:00 17,4 13,6 15,6 16,0 17,9 17,3 - 9 5 14 8 ZZO 1020,9 30 47 0,0
17.08.2017 07:00:00 16,2 14,7 14,7 14,8 18,1 17,3 - 9 5 12 6 Z 1021,0 25 30 0,0
17.08.2017 06:00:00 15,1 12,3 11,7 14,7 18,4 17,3 - 7 4 10 6 ZZW 1020,9 36 0 0,0
17.08.2017 05:00:00 15,0 14,3 12,6 15,0 18,7 17,3 - 9 5 14 7 ZZW 1020,7 13 0 0,0
17.08.2017 04:00:00 14,6 14,3 12,8 15,4 19,0 17,3 - 13 7 17 9 ZW 1021,2 7 0 0,0
17.08.2017 03:00:00 14,7 14,6 13,0 15,8 19,3 17,3 - 15 8 16 8 WZW 1021,4 2,8 0 0,0
17.08.2017 02:00:00 15,3 14,8 13,7 16,2 19,7 17,3 - 11 6 14 8 W 1021,5 5 0 0,0
17.08.2017 01:00:00 15,7 14,2 13,9 16,7 20,0 17,3 - 11 6 13 7 W 1021,6 16 0 0,0
17.08.2017 00:00:00 16,0 14,7 13,8 17,1 20,4 17,3 - 14 7 17 9 W 1021,7 18 0 0,0
16.08.2017 23:00:00 16,1 14,5 14,4 17,7 20,8 17,3 - 12 6 14 8 W 1021,8 22 0 0,0
16.08.2017 22:00:00 16,2 14,5 14,4 18,5 21,2 17,3 - 13 7 19 10 W 1021,7 22 0 0,0
16.08.2017 21:00:00 16,6 13,5 14,7 19,7 21,6 17,3 - 14 7 23 12 W 1021,4 37 0 0,0
16.08.2017 20:00:00 18,3 13,4 17,3 21,6 21,8 17,3 - 16 9 26 14 W 1020,9 46 60 0,0
16.08.2017 19:00:00 19,0 14,9 19,6 23,4 21,8 17,3 - 24 13 35 19 W 1021,0 20 60 0,0
16.08.2017 18:00:00 19,2 15,2 20,6 24,7 21,6 17,2 - 29 16 36 20 W 1021,0 16 60 0,0
16.08.2017 17:00:00 19,7 14,4 21,5 25,8 21,3 17,2 - 23 13 32 18 W 1020,9 13 56 0,0
16.08.2017 16:00:00 19,3 14,5 22,4 25,8 20,9 17,2 - 18 10 26 14 WNW 1020,8 19 59 0,0
16.08.2017 15:00:00 18,4 15,0 20,1 24,0 20,6 17,2 - 10 6 23 13 WNW 1020,5 12 32 0,0
16.08.2017 14:00:00 18,2 15,6 20,4 22,6 20,5 17,2 - 15 8 23 13 WNW 1020,5 9 1 0,0
16.08.2017 13:00:00 17,9 16,0 19,5 22,1 20,3 17,2 - 12 7 25 14 WNW 1019,8 8 0 0,0
16.08.2017 12:00:00 17,9 16,2 19,0 21,5 20,2 17,2 17,8 17 9 28 15 WNW 1019,4 9 0 0,0
16.08.2017 11:00:00 17,9 16,0 19,1 21,5 20,1 17,2 17,8 21 11 32 18 WNW 1019,0 10 0 0,0
16.08.2017 10:00:00 18,0 16,6 19,3 21,1 20,0 17,2 17,8 20 11 32 17 NW 1018,4 8 9 0,0
16.08.2017 09:00:00 18,0 17,2 18,5 19,8 20,0 17,2 17,8 21 11 33 18 NW 1017,7 6 2 0,0
16.08.2017 08:00:00 17,9 17,5 18,0 19,0 20,2 17,2 17,8 18 10 29 15 WNW 1016,8 3,5 8 0,0
16.08.2017 07:00:00 17,8 17,0 17,0 18,3 20,4 17,2 17,8 19 10 28 15 W 1016,3 10 9 0,0
16.08.2017 06:00:00 17,3 17,3 17,0 18,8 20,6 17,2 17,8 8 5 16 9 WZW 1015,5 2,4 0 0,0
16.08.2017 05:00:00 17,5 17,2 17,2 19,1 20,9 17,2 17,8 16 8 20 11 WZW 1015,3 6 0 0,0
16.08.2017 04:00:00 17,2 16,8 16,9 19,3 21,1 17,2 17,9 14 8 18 10 ZZW 1015,1 9 0 0,0
16.08.2017 03:00:00 17,4 16,5 17,0 19,7 21,4 17,2 17,9 7 4 18 10 ZZW 1014,3 11 0 2,0
16.08.2017 02:00:00 17,7 16,9 17,2 20,2 21,7 17,2 17,9 16 9 45 24 ZW 1015,6 8 0 1,0
16.08.2017 01:00:00 19,8 15,8 19,3 20,8 21,9 17,1 17,9 17 9 37 20 Z 1015,0 33 0 0,0
16.08.2017 00:00:00 20,5 14,7 19,9 21,1 22,2 17,1 17,9 27 15 44 24 ZZO 1015,3 43 0 0,0
15.08.2017 23:00:00 21,2 14,1 20,8 21,4 22,6 17,1 17,9 32 18 43 23 ZZO 1015,8 47 0 0,0
15.08.2017 22:00:00 19,2 16,2 18,0 22,0 23,0 17,1 17,8 15 8 47 26 OZO 1016,1 27 0 0,0
15.08.2017 21:00:00 19,6 16,1 19,1 23,2 23,3 17,1 17,9 42 23 48 26 ZO 1016,0 34 0 0,0
15.08.2017 20:00:00 19,1 16,7 19,3 24,8 23,6 17,1 17,9 24 13 41 22 OZO 1016,7 25 0 0,0
15.08.2017 19:00:00 18,9 16,9 19,0 26,6 23,6 17,1 17,9 11 6 37 20 O 1017,2 25 24 0,0
15.08.2017 18:00:00 19,6 16,5 21,3 28,9 23,3 17,1 17,9 16 9 37 20 O 1017,5 30 60 0,0
15.08.2017 17:00:00 20,4 16,1 23,3 30,7 22,8 17,1 17,9 19 11 39 21 O 1018,1 25 60 0,0
15.08.2017 16:00:00 20,7 16,4 24,5 30,8 22,1 17,1 17,9 16 9 43 23 O 1018,6 27 60 0,0
15.08.2017 15:00:00 21,0 16,1 24,8 30,0 21,4 17,1 17,9 26 14 45 25 OZO 1019,4 21 60 0,0
15.08.2017 14:00:00 21,1 13,1 23,6 28,5 20,7 17,1 17,8 29 16 47 25 ZO 1020,0 18 60 0,0
15.08.2017 13:00:00 20,5 13,5 22,8 27,3 20,1 17,1 17,8 33 18 46 25 ZO 1020,2 14 60 0,0
15.08.2017 12:00:00 20,3 13,7 22,5 25,5 19,5 17,1 17,8 30 16 40 22 ZZO 1020,6 14 60 0,0
15.08.2017 11:00:00 20,3 13,0 21,8 23,7 19,0 17,1 17,7 31 17 40 22 ZZO 1020,9 20 60 0,0
15.08.2017 10:00:00 19,6 13,4 21,0 21,5 18,7 17,1 17,6 24 13 35 19 ZZO 1021,1 19 60 0,0
15.08.2017 09:00:00 19,1 13,0 19,6 19,2 18,6 17,1 17,6 16 8 37 20 Z 1021,5 14 60 0,0
15.08.2017 08:00:00 18,1 12,9 17,7 17,4 18,7 17,1 17,6 21 12 37 20 ZZO 1021,6 15 60 0,0
15.08.2017 07:00:00 17,6 13,6 16,7 16,7 18,9 17,1 17,6 13 7 34 19 Z 1021,9 24 20 0,0
15.08.2017 06:00:00 17,6 14,2 16,2 16,9 19,1 17,1 17,6 18 10 27 15 ZZO 1022,2 23 0 0,0
15.08.2017 05:00:00 17,4 14,6 16,4 17,0 19,4 17,1 17,7 21 12 37 20 ZO 1022,4 24 0 0,0
15.08.2017 04:00:00 17,4 14,7 16,7 17,1 19,6 17,1 17,7 32 17 41 22 ZO 1022,7 23 0 0,0
15.08.2017 03:00:00 17,0 14,1 16,0 17,2 19,9 17,1 17,7 26 14 43 23 OZO 1023,0 24 0 0,0
15.08.2017 02:00:00 17,0 13,9 16,0 17,5 20,3 17,1 17,8 25 13 42 23 OZO 1023,3 38 0 0,0
15.08.2017 01:00:00 16,6 13,7 15,3 17,9 20,7 17,1 17,9 16 8 40 22 O 1023,8 31 0 0,0
15.08.2017 00:00:00 16,5 13,1 15,5 18,3 21,1 17,1 18,0 21 11 38 21 OZO 1024,0 31 0 0,0
14.08.2017 23:00:00 16,3 13,0 14,8 19,0 21,6 17,1 18,1 15 8 37 20 O 1024,2 35 0 0,0
14.08.2017 22:00:00 16,1 11,8 14,7 20,0 22,1 17,1 18,4 13 7 27 14 O 1024,4 34 0 0,0
14.08.2017 21:00:00 16,1 11,8 14,5 21,7 22,5 17,1 18,2 6 4 21 11 O 1024,3 33 27 0,0
14.08.2017 20:00:00 16,2 11,6 15,2 24,1 22,7 17,2 18,7 5 3 21 11 O 1024,3 34 60 0,0
14.08.2017 19:00:00 16,8 11,6 18,5 26,5 22,6 17,2 19,7 7 4 24 13 ONO 1024,5 33 60 0,0
14.08.2017 18:00:00 17,1 11,7 20,5 28,2 22,4 17,2 19,8 9 5 22 12 O 1024,7 29 60 0,0
14.08.2017 17:00:00 17,2 11,5 20,9 29,7 21,8 17,2 20,7 7 4 22 12 O 1025,0 42 60 0,0
14.08.2017 16:00:00 17,4 11,9 21,7 30,2 21,1 17,2 19,9 13 7 20 11 O 1025,3 39 60 0,0
14.08.2017 15:00:00 17,1 10,1 21,4 30,0 20,2 17,2 19,5 11 6 19 10 O 1025,4 28 60 0,0
14.08.2017 14:00:00 17,4 9,9 21,1 28,9 19,4 17,2 19,0 14 7 17 9 ONO 1025,4 45 60 0,0
14.08.2017 13:00:00 18,2 10,7 22,7 26,3 18,6 17,2 18,3 11 6 14 8 NO 1025,6 30 56 0,0
14.08.2017 12:00:00 17,0 10,0 18,7 23,1 18,1 17,2 17,8 8 4 13 7 NNO 1025,7 40 30 0,0
14.08.2017 11:00:00 17,1 10,0 19,6 22,7 17,6 17,2 17,6 7 4 13 7 N 1025,6 34 60 0,0
14.08.2017 10:00:00 16,7 9,8 18,9 19,8 17,3 17,2 17,5 7 4 12 6 N 1025,1 33 60 0,0
14.08.2017 09:00:00 16,8 10,1 17,4 17,6 17,2 17,2 17,6 6 3 12 7 N 1024,7 36 60 0,0
14.08.2017 08:00:00 16,4 10,4 15,8 15,4 17,3 17,2 17,6 5 3 13 7 N 1024,3 35 60 0,0
14.08.2017 07:00:00 15,2 10,5 13,0 14,4 17,5 17,2 17,6 4 2 14 7 N 1023,9 44 49 0,0
14.08.2017 06:00:00 15,0 9,8 12,5 14,2 17,7 17,2 17,6 7 4 14 8 NNW 1023,6 40 0 0,0
14.08.2017 05:00:00 15,1 9,2 12,9 14,5 18,0 17,2 17,6 11 6 18 10 NNW 1023,1 39 0 0,0
14.08.2017 04:00:00 15,6 8,6 13,6 15,0 18,3 17,2 17,5 14 8 21 11 NNW 1022,9 30 0 0,0
14.08.2017 03:00:00 15,7 10,6 14,3 15,3 18,6 17,2 17,6 14 7 22 12 NNW 1022,5 17 0 0,0
14.08.2017 02:00:00 15,9 10,5 13,9 15,7 18,9 17,2 17,6 13 7 25 14 NW 1022,3 20 0 0,0
14.08.2017 01:00:00 14,9 10,5 12,9 16,0 19,3 17,2 17,6 12 6 20 11 WNW 1022,0 37 0 0,0
14.08.2017 00:00:00 14,8 10,6 12,7 16,4 19,7 17,2 17,5 13 7 23 13 WNW 1021,6 37 0 0,0

tt = temperatuur
td = dauwpunt
tt 5cm = temperatuur 5cm
tt -5cm = temperatuur -5cm
tt -20cm = temperatuur -20cm
tt -100cm = temperatuur -100cm
tw = water temperatuur
ff = windsnelheid
fx = windstoten
dd = windrichting
ppp = luchtdruk
vv = zicht
sd = Zonneschijnduur
rr = neerslag

Weerstations in de omgeving